Find Starlink 2340

NORAD ID: 47882 Int'l Des: 2021-021 Owner: SPXS Country: US Constellation: starlink decayed
LEOCIRCULAR
Vis

Historical Track — Dec 13, 2025

正在加载3D地球...

关于 Starlink 2340

正在加载描述...

高度历史

Loading altitude history...

两行轨道根数

1 47882U 21021Y 25346.99769527 .12719400 11834-4 50432-2 0 9990
2 47882 53.0135 196.2277 0007113 237.1020 122.9335 16.22920402264767
Epoch: Dec 12, 2025 • Age: 3446 hours

当前状态

Position data unavailable
发射日期 Mar 14, 2021
运行时间 5.1 years
衰减日期 Dec 13, 2025
类型 internet

技术详情

分类 Payload
质量 260.00 kg
干质量 248.00 kg
总质量 260.00 kg
长度 0.20 m
直径 2.80 m
跨度 9.00 m
形状 Box + pan
制造商 SPXS
平台类型 Starlink
阶段状态 Reentered
所有者/国家 SPXS/US

Most Searched